x

South Moresby (46147) Wave Buoy

9:00pm - Wed 24th May 2017 All times are PDT. -7 hours from GMT.

  • Sig Wave height 12.1ft
  • Peak Period 9s
  • Wind
    29mph, 38mph gusts
  • Sea Temp 50°f
  • Air Temp 48°f
  • Sea Pressure 1021.5mb
  • South Moresby
  • South Moresby

More Historic Weather Station data

Upgrade to MSW Pro to gain access to the past 30 days of data for over 8000 Wavebouys and Weather Stations around the globe.

Join Pro

Comparision Forecast

View Surf forecast
   
Wed 05/24 9:00pm 12ft 9s 29 38 mph 1021.5mb 50f 48f
8:00pm 13ft 8s 31 38 mph 1021.9mb 49f 48f
7:00pm 12ft 9s 31 40 mph 1022.2mb 49f 49f
6:00pm 11.5ft 10s 31 38 mph 1022.6mb 49f 49f
4:00pm  -   -  31
mph
1023.1mb 49f 48f
3:00pm 12ft 10s 31 38 mph 1023.3mb 49f 48f
2:00pm 13ft 10s 31 40 mph 1023.8mb 49f 48f
1:00pm 12.5ft 10s 29 36 mph 1024.2mb 49f 48f
12:00pm  -   -  31
mph
- - -
11:00am 13.5ft 8s 31 38 mph 1024.4mb 49f 49f
10:00am 14ft 9s 29 38 mph 1024.6mb 49f 49f
9:00am 14ft 8s 29 38 mph 1024.8mb 49f 48f
8:00am 14ft 9s 31 38 mph 1024.5mb 49f 48f
7:00am 13ft 9s 31 43 mph 1024.1mb 49f 48f
6:00am 13.5ft 10s 34 43 mph 1023.9mb 49f 49f
5:00am 12ft 10s 31 40 mph 1023.9mb 49f 49f
4:00am 12.5ft 9s 31 40 mph 1023.4mb 49f 49f
3:00am 12ft 9s 34 43 mph 1022.8mb 49f 49f
2:00am 12ft 9s 36 45 mph 1021.9mb 49f 49f
1:00am 11ft 10s 31 38 mph 1022.3mb 49f 49f
12:00am 11ft 9s 27 34 mph 1022.2mb 49f 49f
Tue 05/23 11:00pm 11.5ft 10s 31 38 mph 1021.2mb 49f 49f
10:00pm 11.5ft 9s 29 36 mph 1021mb 49f 49f
9:00pm 11ft 10s 29 34 mph 1020.8mb 49f 50f
8:00pm 11ft 9s 27 36 mph 1020.6mb 49f 50f
7:00pm 11.5ft 10s 25 31 mph 1020mb 49f 50f
6:00pm 12ft 10s 25 29 mph 1019.3mb 49f 50f
5:00pm 11ft 8s 27 31 mph 1018.7mb 49f 49f
4:00pm 11ft 8s 27 31 mph 1018.5mb 49f 47f
3:00pm 11ft 8s 27 36 mph 1018mb 50f 48f
2:00pm 10ft 8s 27 34 mph 1017.5mb 50f 48f
1:00pm  -   -  27
mph
- - -
12:00pm 9.5ft 7s 27 34 mph 1016.1mb 50f 48f
11:00am 10ft 7s 27 34 mph 1016.1mb 49f 46f
10:00am 9ft 10s 25 29 mph 1015.6mb 49f 49f
9:00am 9ft 11s 27 31 mph 1015.1mb 50f 48f
8:00am 9ft 11s 27 36 mph 1014.6mb 50f 48f
7:00am 9ft 11s 22 29 mph 1014.6mb 50f 49f
6:00am 8.5ft 10s 22 29 mph 1014.5mb 50f 49f
5:00am 9ft 11s 25 31 mph 1014.6mb 50f 49f
4:00am 9ft 11s 18 22 mph 1015.1mb 50f 50f
3:00am 9.5ft 11s 16 20 mph 1015.4mb 50f 50f
2:00am 8.5ft 11s 18 22 mph 1016.1mb 50f 50f
1:00am 9ft 10s 18 22 mph 1016.5mb 50f 50f
12:00am 8ft 11s 16 20 mph 1016.7mb 50f 50f
Mon 05/22 11:00pm 8ft 11s 18 20 mph 1017.2mb 50f 50f
10:00pm 8ft 11s 16 18 mph 1017.8mb 50f 50f
9:00pm 8.5ft 11s 13 18 mph 1018mb 50f 50f
8:00pm 8ft 11s 16 20 mph 1018.5mb 50f 51f
7:00pm 8.5ft 11s 13 18 mph 1018.5mb 49f 51f
6:00pm 9ft 12s 16 20 mph 1019.8mb 50f 51f
5:00pm 9.5ft 11s 16 20 mph 1020.5mb 50f 51f
4:00pm 9ft 12s 16 20 mph 1020.8mb 50f 51f
3:00pm 9ft 11s 13 18 mph 1021.4mb 50f 51f
2:00pm 9.5ft 11s 13 18 mph 1021.2mb 50f 51f
1:00pm 9ft 11s 16 18 mph 1021.2mb 50f 51f
12:00pm 9ft 11s 16 20 mph 1021.4mb 50f 51f
11:00am 9ft 11s 16 18 mph 1021.3mb 50f 51f
10:00am 9.5ft 11s 18 22 mph 1022mb 49f 51f
9:00am 9.5ft 11s 16 18 mph 1021.6mb 50f 50f
8:00am 9ft 12s 16 20 mph 1022.2mb 50f 50f
7:00am 10ft 11s 13 18 mph 1022.1mb 50f 50f
6:00am 10ft 11s 13 18 mph 1022.4mb 50f 50f
5:00am 9ft 10s 11 16 mph 1022.9mb 50f 51f
4:00am 10ft 11s 11 13 mph 1023.3mb 50f 51f
3:00am 10ft 10s 9 11 mph 1023.6mb 50f 51f
2:00am 10ft 10s 9 11 mph 1023.8mb 50f 51f
1:00am 9ft 10s 9 11 mph 1024.2mb 50f 51f
12:00am 10ft 10s 11 13 mph 1024.1mb 50f 51f
Sun 05/21 11:00pm 9.5ft 10s 9 11 mph 1024.7mb 51f 51f
10:00pm 9ft 10s 9 11 mph 1024.3mb 51f 51f
9:00pm 8.5ft 10s 11 13 mph 1024.6mb 51f 51f
8:00pm 8ft 10s 11 13 mph 1024.6mb 51f 52f
7:00pm 9ft 10s 13 18 mph 1024.8mb 51f 52f
6:00pm 9.5ft 10s 16 18 mph 1024.6mb 51f 52f
5:00pm 9ft 10s 13 18 mph 1025mb 51f 52f
4:00pm 9ft 9s 16 18 mph 1025.3mb 51f 52f
3:00pm 8ft 9s 16 18 mph 1025.8mb 51f 52f
2:00pm 8ft 9s 16 18 mph 1025.4mb 50f 52f
1:00pm 8ft 8s 13 18 mph 1025.2mb 50f 52f
12:00pm 8ft 9s 13 18 mph 1024.9mb 50f 52f
11:00am 8ft 9s 13 18 mph 1024.7mb 51f 52f
10:00am 7ft 9s 13 18 mph 1024.2mb 51f 52f
9:00am 7.5ft 9s 13 18 mph 1024mb 51f 51f
8:00am 6.5ft 7s 13 16 mph 1023.7mb 51f 51f
7:00am 6ft 8s 13 18 mph 1023.5mb 51f 51f
6:00am 6ft 7s 13 18 mph 1023.4mb 51f 52f